Regional Weather Roundup
Issued by NWS Jackson, KY

Home | Current Version | Previous Version | Text Only | Print | Product List | Glossary Off
Versions: 1 2 3 4 5 6 7 8 9 10 11 12 13 14 15 16 17 18 19 20 21 22 23 24 25 26 27 28 29 30 31 32 33 34 35 36 37 38 39 40 41 42 43 44 45 46 47 48 49 50

385
ASUS43 KJKL 250510
RWRJKL

EAST KENTUCKY HOURLY WEATHER ROUNDUP
NATIONAL WEATHER SERVICE JACKSON KY
100 AM EDT TUE JUL 25 2017

NOTE: "FAIR" INDICATES FEW OR NO CLOUDS BELOW 12,000 FEET WITH
NO SIGNIFICANT WEATHER AND/OR OBSTRUCTIONS TO VISIBILITY.

* THESE REPORTS ARE NOT UNDER NWS QUALITY CONTROL AND MAY NOT
  REPORT WEATHER SUCH AS PRECIPITATION AND FOG.

KYZ079-080-083-085-087-088-110-112-115-119-120-250600
...EASTERN KENTUCKY...

CITY           SKY/WX    TMP DP  RH WIND       PRES   REMARKS
JACKSON        CLOUDY    71  68  90 CALM      30.08R
LONDON         CLOUDY    74  68  81 CALM      30.07R
SOMERSET*      MOCLDY    72  72 100 CALM      30.07R
MONTICELLO*    MOCLDY    73  72  96 N8        30.08R
WILLIAMSBURG*  PTCLDY    72  72 100 CALM      30.07S
MIDDLESBORO*   PTCLDY    71  69  93 CALM      30.08S
PIKE CO APT*     N/A     70  70 100 NW3       30.09R
BIG SANDY APT* FOG       70  70 100 CALM      30.08R VSB 1/2
MOREHEAD APT*  CLOUDY    72  64  78 NE7       30.10R
$$

KYZ035-036-041-042-044-050-067-078-099-250600
...CENTRAL KENTUCKY...

CITY           SKY/WX    TMP DP  RH WIND       PRES   REMARKS
MT STERLING*   CLEAR     72  64  78 NE8       30.09R
FLEMING/MASON* CLEAR     68  62  81 NE7       30.10R
DANVILLE*      FOG       70  68  94 CALM      30.07R VSB 1/2
LEXINGTON      PTCLDY    73  66  78 NE12      30.07R
FRANKFORT      MOCLDY    75  65  70 NE9       30.06R
LOUISVILLE     PTCLDY    77  67  71 NE8       30.04R
LEBANON*         N/A     73  72  94 CALM      30.05R
GLASGOW*       PTCLDY    75  75 100 CALM      30.03R
BOWLING GREEN  PTCLDY    79  72  79 CALM      30.02R
$$

KYZ091>093-OHZ055-061-077-WVZ005-015-034-035-042-250600
...SOUTHERN OHIO/WEST VIRGINIA...

CITY           SKY/WX    TMP DP  RH WIND       PRES   REMARKS
COVINGTON      CLEAR     71  61  70 NE13      30.09R
COLUMBUS       CLEAR     63  60  90 N5        30.11R
DAYTON         CLEAR     61  57  87 NE6       30.13R
WILMINGTON     CLEAR     60  60 100 NE7       30.11R
HUNTINGTON     PTCLDY    71  62  73 VRB3      30.07R
CHARLESTON     CLOUDY    72  61  68 N6        30.07R
PINEVILLE*     CLOUDY    67  66  96 MISG      30.14R FOG
BECKLEY        CLOUDY    67  65  93 W5        30.12R
BLUEFIELD      MOCLDY    67  63  87 W6        30.14S
LOGAN CO APT*    N/A     72  68  88 CALM      30.09R
$$

VAZ002-007-008-TNZ017-027-036-066-071-250600
...SOUTHWEST VIRGINIA/EAST TENNESSEE...

CITY           SKY/WX    TMP DP  RH WIND       PRES   REMARKS
WISE*          CLOUDY    68  68 100 SW5       30.16S
JONESVILLE*      N/A     72  68  88 CALM      30.10R
ABINGDON*      CLOUDY    74  67  79 CALM      30.11S
BRISTOL        CLOUDY    75  67  76 CALM      30.07F
MORRISTOWN*    CLEAR     72  70  94 CALM      30.05S
SEVIERVILLE*   CLEAR     72  70  94 CALM      30.04S
KNOXVILLE      MOCLDY    76  68  76 CALM      30.04R
LAFOLLETTE*    CLEAR     70  70 100 CALM      30.09S FOG
OAK RIDGE      PTCLDY    75  71  87 CALM      30.06R
CROSSVILLE     PTCLDY    69  67  93 CALM      30.11R
NASHVILLE      PTCLDY    82  74  76 NE3       30.02R
$$

...KEY TO REMARKS...
VSB - VISIBILITY IN MILES
WCI - WIND CHILL INDEX
HX  - HEAT INDEX

$$




USA.gov is the U.S. government's official web portal to all federal, state and local government web resources and services.